sat.trackr.live / text

‹ back to catalog

HULIANWANG DIGUI-01

NORAD 62323 · 2024-240A

PAYLOAD ACTIVE UNKNOWN

§ Identity

Operator
Country
PRC
Launch date
2024-12-16
Launch site
WSC
Launch vehicle
Mass (kg)
RCS (m²)

External: N2YO · Heavens-Above · Gunter

§ Orbital elements

Epoch: 2026-05-25T04:23:07.168704Z

Period
108.73 min
Inclination
86.5000°
Eccentricity
0.0001498
Mean motion
13.24408899 rev/d
Perigee alt
1,166.8 km
Apogee alt
1,169.1 km
Semi-major
7,546.1 km
B*
2.8582e-6
RAAN
351.0024°
Arg perigee
81.7627°
Mean anomaly
278.3677°
Rev number
6,959

§ Raw data

HULIANWANG DIGUI-011 62323U 24240A   26145.18272186  .00000016  00000+0  28582-5 0  99972 62323  86.5000 351.0024 0001498  81.7627 278.3677 13.24408899 69592

JSON: /api/v1/satellites/62323 · /tle

For live sub-satellite position, see the globe view (requires WebGL).

§ Visibility from observer

Set your observer location to see the next 7 days of passes ≥ 10°. The values pass through the URL so the page stays shareable.

No JS? Fill the form by hand. The geolocation button needs JavaScript.